If you wish to contribute or participate in the discussions about articles you are invited to join SKYbrary as a registered user

 Actions

Asturias

From SKYbrary Wiki

LEAS
Airport
ICAO: LEAS
Summary
Name Asturias
Region Europe
Territory Spain ES.gif
Location Asturias, Spain
Serving
Coordinates 43° 33' 34.42" N, 6° 1' 51.66" W
Runways
Designator Length Width Surface ROPS
11/29 2200 m7,217.848 ft
45 m147.638 ft
ASP yes/yes


METAR
Observation LEAS 140530Z 23008KT 9999 BKN063 BKN080 14/10 Q1005 TEMPO 3000 RA
Station Asturias / Aviles
Date/Time 14 October 2019 05:30:00
Wind direction 230°
Wind speed 08 kts
Lowest cloud amount broken clouds
Temperature 14°C
Dew point 10°C
Humidity 76%
QNH 1005 hPa
Weather condition n/a

BS
Tag(s) Bird Strike
WX
Tag(s) Fog

Asturias Airport

ICAO: LEAS IATA: OVD

Description

International airport serving Asturias in northern spain.

Climatology

Temperate Marine climate/Oceanic climate (Köppen climate classification Cfb). Moderately cool summer and comparatively warm winter with a temperature range of only 14°C57.2 °F
287.15 K
516.87 °R
. Prevailing south-westerly winds from the Atlantic Ocean.

Maps

Terrain

Loading map...

Airport Layout

Loading map...


Accidents & Serious Incidents at or in vicinity of LEAS

None on SKYbrary